Date,TemperatureHighF,TemperatureAvgF,TemperatureLowF,DewpointHighF,DewpointAvgF,DewpointLowF,HumidityHigh,HumidityAvg,HumidityLow,PressureMaxIn,PressureMinIn,WindSpeedMaxMPH,WindSpeedAvgMPH,GustSpeedMaxMPH,PrecipitationSumIn
2013-1-1,36,29,28,33,25,22,90,83,77,30.44,30.16,5,2,13,0.00
2013-1-2,44,33,27,26,23,21,82,69,45,30.45,30.32,2,0,10,0.00
2013-1-3,44,33,25,27,22,18,82,65,43,30.60,30.45,3,1,8,0.00
2013-1-4,46,36,25,27,23,18,74,60,41,30.61,30.41,5,1,12,0.00
2013-1-5,51,41,33,32,29,22,85,64,41,30.43,30.25,5,2,16,0.00
2013-1-6,53,40,29,24,21,17,71,49,27,30.56,30.43,3,1,8,0.00
2013-1-7,52,40,28,28,21,16,65,48,30,30.43,30.19,6,2,13,0.00
2013-1-8,54,45,35,43,34,27,88,67,50,30.24,30.11,5,2,14,0.01
2013-1-9,49,47,46,47,44,42,92,90,81,30.39,30.17,5,2,13,0.29
2013-1-10,57,51,47,54,49,44,92,91,88,30.18,29.88,4,2,14,0.32
2013-1-11,70,56,45,50,44,38,88,68,39,29.94,29.73,8,4,22,0.00
2013-1-12,57,37,26,38,24,13,73,59,32,30.19,29.88,6,3,14,0.00
2013-1-13,33,25,20,13,11,8,64,54,39,30.51,30.16,5,2,12,0.00
2013-1-14,38,27,20,13,9,7,65,48,29,30.57,30.41,3,1,12,0.00
2013-1-15,35,26,21,17,14,10,75,60,39,30.43,30.34,3,1,8,0.00
2013-1-16,50,34,18,26,15,8,75,50,25,30.37,30.25,2,0,7,0.00
2013-1-17,56,43,34,30,27,25,72,55,34,30.61,30.33,4,1,12,0.00
2013-1-18,60,46,34,30,27,25,70,50,27,30.58,30.27,8,3,17,0.00
2013-1-19,67,50,38,34,32,29,70,51,27,30.30,30.17,5,2,12,0.00
2013-1-20,67,49,37,34,30,26,65,50,28,30.31,30.17,5,1,10,0.00
2013-1-21,45,34,24,22,14,10,55,45,27,30.52,30.33,3,1,11,0.00
2013-1-22,60,42,25,33,22,13,66,47,27,30.41,30.25,5,1,14,0.00
2013-1-23,71,50,35,48,40,31,90,71,41,30.32,30.17,5,1,12,0.00
2013-1-24,51,40,31,45,31,23,83,69,56,30.32,30.21,5,1,12,0.00
2013-1-25,47,36,27,32,28,22,85,73,54,30.37,30.24,3,1,10,0.00
2013-1-26,46,40,32,42,36,27,91,85,74,30.35,30.17,6,2,16,0.00
2013-1-27,69,56,43,56,50,41,92,81,58,30.17,29.90,9,5,21,0.01
2013-1-28,74,67,60,60,58,54,89,74,57,29.98,29.76,9,6,22,0.00
2013-1-29,68,58,40,60,52,33,91,80,43,29.77,29.50,8,3,20,0.46
2013-1-30,47,38,31,33,24,14,77,57,29,30.19,29.75,6,2,13,0.00
2013-1-31,62,40,26,28,21,12,66,49,23,30.51,30.16,5,1,14,0.00
2013-2-1,51,34,19,26,16,7,67,49,28,30.56,30.25,7,2,16,0.00
2013-2-2,60,44,30,33,28,23,76,56,31,30.41,30.26,4,1,10,0.00
2013-2-3,60,50,37,30,27,24,62,43,26,30.42,29.99,6,2,14,0.00
2013-2-4,68,57,45,42,31,25,51,38,22,30.03,29.88,5,2,13,0.00
2013-2-5,68,51,37,51,39,27,90,66,36,30.11,30.00,2,0,7,0.00
2013-2-6,58,52,45,56,49,42,92,92,89,30.10,29.92,7,2,16,0.01
2013-2-7,65,53,42,59,48,33,92,83,66,30.26,29.86,7,3,20,0.07
2013-2-8,57,43,32,33,28,21,80,59,26,30.41,30.23,3,1,8,0.00
2013-2-9,48,42,38,46,36,30,92,80,64,30.23,29.78,9,4,26,0.03
2013-2-10,64,50,40,49,32,24,92,54,27,30.14,29.75,6,1,16,0.06
2013-2-11,55,44,34,27,23,20,62,46,25,30.33,30.14,4,1,11,0.00
2013-2-12,43,36,33,32,30,24,91,79,48,30.19,30.06,3,1,11,0.67
2013-2-13,57,41,32,36,30,21,91,68,28,30.21,30.09,2,0,8,0.02
2013-2-14,64,48,34,35,30,23,71,52,24,30.29,30.09,5,1,14,0.00
2013-2-15,44,37,29,34,20,12,73,52,28,30.53,30.30,3,1,12,0.00
2013-2-16,54,40,27,28,24,15,87,57,27,30.52,30.18,4,1,14,0.00
2013-2-17,72,52,37,33,26,23,64,41,17,30.18,29.79,11,4,24,0.00
2013-2-18,58,52,39,47,33,-100,76,51,30,30.25,29.68,12,5,26,0.00
2013-2-19,55,43,31,25,22,18,70,45,24,30.45,30.26,4,1,10,0.00
2013-2-20,43,35,33,34,29,-100,90,83,44,30.28,29.99,8,4,17,0.60
2013-2-21,43,34,24,38,30,16,90,85,72,30.14,29.77,9,2,17,0.75
2013-2-22,40,29,20,22,17,13,75,63,44,30.31,30.12,2,1,7,0.03
2013-2-23,48,34,22,28,22,15,77,63,39,30.26,29.99,4,1,11,0.00
2013-2-24,64,48,32,38,31,24,71,55,35,30.00,29.77,11,4,21,0.00
2013-2-25,49,39,33,38,34,30,91,84,57,29.83,29.59,7,2,14,0.90
2013-2-26,48,38,32,32,29,25,89,71,45,30.05,29.75,6,3,16,0.08
2013-2-27,46,36,27,26,24,22,82,65,41,30.35,30.02,7,2,16,0.00
2013-2-28,49,37,28,28,25,22,81,63,40,30.39,30.32,6,2,14,0.00
2013-3-1,45,34,25,30,25,21,86,69,50,30.45,30.33,5,1,12,0.00
2013-3-2,52,37,22,28,23,18,85,60,32,30.54,30.29,3,0,5,0.00
2013-3-3,71,53,36,33,28,23,62,41,23,30.29,29.67,10,5,19,0.00
2013-3-4,69,56,44,43,34,27,71,44,29,30.09,29.57,9,4,22,0.00
2013-3-5,50,41,33,33,20,12,70,44,27,30.51,30.08,8,4,21,0.00
2013-3-6,54,41,25,21,18,16,73,44,23,30.57,30.27,4,1,11,0.00
2013-3-7,72,54,38,28,22,18,46,31,17,30.28,30.10,11,5,22,0.00
2013-3-8,61,56,53,53,44,27,91,67,33,30.18,29.98,11,6,21,0.00
2013-3-9,63,57,52,57,53,42,91,87,80,29.99,29.69,11,4,27,0.42
2013-3-10,56,42,37,42,31,26,80,66,45,30.14,29.75,6,3,14,0.00
2013-3-11,57,36,24,26,21,17,82,60,23,30.22,30.11,3,1,7,0.00
2013-3-12,60,48,35,36,28,22,61,47,36,30.42,30.10,3,1,10,0.00
2013-3-13,64,50,34,31,27,20,69,44,25,30.56,30.38,6,1,13,0.00
2013-3-14,80,57,46,41,33,29,53,42,24,30.40,30.21,6,3,18,0.00
2013-3-15,82,63,54,42,41,38,61,46,24,30.17,29.92,6,3,18,0.00
2013-3-16,81,68,58,45,43,41,57,42,26,29.81,29.72,7,4,20,0.00
2013-3-17,52,44,42,38,34,32,72,67,59,29.93,29.83,4,1,16,0.00
2013-3-18,56,43,39,39,37,35,89,81,48,30.07,29.75,5,2,12,0.00
2013-3-19,61,50,39,34,26,21,71,42,22,30.25,30.06,9,1,22,0.00
2013-3-20,60,48,34,31,27,24,71,46,26,30.46,30.11,4,1,11,0.00
2013-3-21,59,49,43,39,32,27,63,52,44,30.11,29.61,12,5,24,0.00
2013-3-22,46,43,38,36,34,32,84,73,63,30.00,29.73,6,2,14,0.00
2013-3-23,45,42,36,39,37,33,89,82,73,30.02,29.81,4,1,11,0.00
2013-3-24,43,34,30,33,24,20,86,68,40,30.28,30.00,7,5,16,0.00
2013-3-25,42,32,26,19,16,10,70,54,28,30.51,30.34,6,2,17,0.00
2013-3-26,31,30,30,14,14,13,50,49,48,30.52,30.52,0,0,0,0.00
2013-3-27,48,42,40,22,21,19,48,43,36,30.33,30.26,9,5,22,0.00
2013-3-28,55,53,51,37,37,36,59,54,50,30.17,30.15,4,3,10,0.00
2013-3-29,62,58,56,57,52,51,88,82,73,30.17,30.11,6,3,14,0.02
2013-3-30,64,58,54,54,53,50,89,84,69,30.07,30.02,5,1,11,0.00
2013-3-31,65,65,64,57,56,56,75,74,74,29.92,29.92,1,0,6,0.00
2013-4-1,56,54,50,38,37,35,61,53,49,30.08,30.06,0,0,2,0.00
2013-4-2,44,41,38,38,35,34,87,81,75,30.19,30.13,6,3,16,0.16
2013-4-3,40,38,36,38,36,34,91,91,91,30.32,30.18,5,2,13,0.89
2013-4-4,56,42,34,41,36,32,92,80,52,30.33,30.22,3,0,7,0.06
2013-4-5,40,38,36,36,34,32,89,85,83,30.32,30.27,0,0,2,0.00
2013-4-6,75,62,54,49,45,43,70,56,35,30.00,29.86,10,5,21,0.00
2013-4-7,71,63,54,58,55,50,91,77,62,29.92,29.73,9,4,20,0.00
2013-4-8,65,63,62,58,57,56,83,81,77,29.73,29.65,7,4,17,0.00
2013-4-9,69,68,66,60,59,58,79,75,72,29.67,29.61,12,7,21,0.00
2013-4-10,38,33,30,33,30,27,89,88,77,30.18,29.89,8,2,17,1.63
2013-4-11,57,41,28,34,28,24,84,63,35,30.13,29.88,2,1,8,0.01
2013-4-12,63,51,38,40,35,30,79,56,35,30.13,29.91,3,1,11,0.00
2013-4-13,76,60,47,44,40,37,72,51,28,30.08,29.79,9,4,20,0.01
2013-4-14,82,69,57,58,51,44,75,54,34,29.76,29.51,10,5,25,0.00
2013-4-15,81,68,57,59,48,37,76,49,37,29.83,29.62,4,1,12,0.00
2013-4-16,60,59,59,45,45,44,59,58,57,29.84,29.84,4,2,12,0.00
2013-4-17,76,65,50,66,58,45,91,79,54,29.97,29.55,11,4,28,1.85
2013-4-18,54,42,36,51,32,26,91,71,49,30.27,29.65,8,4,18,0.26
2013-4-19,65,48,31,34,27,21,77,49,24,30.34,30.16,4,1,10,0.00
2013-4-20,71,58,46,34,29,23,53,36,17,30.20,30.02,10,4,25,0.00
2013-4-21,70,60,51,46,39,34,63,48,33,30.24,30.11,10,4,19,0.00
2013-4-22,78,64,51,55,48,41,71,57,41,30.15,29.81,10,4,22,0.00
2013-4-23,65,41,34,55,35,25,88,79,68,30.38,29.86,7,4,18,0.00
2013-4-24,59,45,29,31,27,24,86,54,28,30.46,30.33,5,1,10,0.00
2013-4-25,70,56,38,38,30,21,70,41,17,30.43,30.20,7,2,16,0.00
2013-4-26,70,62,56,59,49,38,90,64,45,30.22,29.98,8,4,19,0.78
2013-4-27,68,57,51,54,51,48,92,79,58,30.22,30.07,6,2,12,0.01
2013-4-28,83,65,49,57,49,42,91,62,24,30.11,29.86,4,1,13,0.01
2013-4-29,87,74,61,59,52,42,84,52,26,29.89,29.74,8,4,19,0.00
2013-4-30,84,73,62,57,54,51,75,55,32,29.82,29.73,8,4,18,0.00
2013-5-1,81,67,46,64,56,39,88,71,48,30.20,29.78,8,4,17,0.00
2013-5-2,46,41,38,39,33,28,86,74,50,30.52,30.20,8,5,20,0.03
2013-5-3,63,48,34,32,29,23,80,51,23,30.50,30.11,5,2,13,0.00
2013-5-4,62,50,39,39,31,21,74,51,24,30.16,30.05,7,2,20,0.00
2013-5-5,63,53,45,47,42,36,84,67,54,30.26,30.16,5,1,11,0.00
2013-5-6,73,60,47,53,48,43,90,66,41,30.21,30.08,2,0,7,0.00
2013-5-7,81,68,55,52,48,43,80,53,28,30.14,29.95,5,1,13,0.00
2013-5-8,85,71,61,60,52,42,90,54,25,29.98,29.81,7,3,19,1.10
2013-5-9,70,65,60,64,60,54,90,83,71,30.01,29.87,5,1,12,0.07
2013-5-10,70,63,57,62,56,51,92,77,53,30.16,29.99,3,1,10,0.26
2013-5-11,79,65,54,55,49,40,82,58,28,30.29,30.15,4,1,11,0.00
2013-5-12,75,63,47,43,38,34,72,43,23,30.33,30.15,4,1,11,0.00
2013-5-13,89,72,57,54,45,34,60,39,23,30.18,30.05,4,2,14,0.00
2013-5-14,87,76,64,58,49,41,53,39,24,30.11,29.92,6,2,14,0.00
2013-5-15,74,67,60,66,58,-100,91,77,44,29.97,29.81,5,2,17,0.48
2013-5-16,70,64,60,63,60,57,92,86,70,29.91,29.82,2,0,8,0.04
2013-5-17,77,68,63,70,65,60,92,89,78,29.92,29.84,2,1,10,0.00
2013-5-18,88,76,63,74,68,57,92,77,50,29.93,29.71,8,3,19,0.59
2013-5-19,86,77,63,70,66,60,90,69,53,29.82,29.54,8,4,20,0.03
2013-5-20,84,76,70,71,67,64,82,73,62,29.74,29.61,9,4,19,0.01
2013-5-21,69,61,55,61,55,50,90,80,59,30.09,29.78,4,0,16,0.53
2013-5-22,81,68,55,59,55,52,91,66,40,30.00,29.87,2,0,10,0.01
2013-5-23,79,68,58,67,60,54,91,75,58,30.14,29.93,7,1,16,0.75
2013-5-24,82,71,60,70,63,57,89,78,64,30.20,30.10,6,2,16,0.00
2013-5-25,79,64,63,68,50,-100,89,80,67,30.19,30.03,7,2,19,0.10
2013-5-26,83,74,66,70,66,62,89,78,61,30.08,29.92,7,3,19,0.00
2013-5-27,81,75,71,68,66,64,85,74,62,29.94,29.74,9,5,21,0.00
2013-5-28,78,72,72,67,58,-100,79,71,64,29.82,29.69,9,4,21,0.00
2013-5-29,79,71,64,69,62,-100,92,77,67,29.80,29.65,11,4,21,1.02
2013-5-30,83,74,68,74,66,57,90,76,60,29.74,29.64,9,4,24,0.72
2013-5-31,88,77,64,74,68,60,90,75,60,29.77,29.54,9,4,21,0.59
2013-6-1,80,70,63,64,57,-100,92,66,40,30.07,29.69,5,1,11,0.39
2013-6-2,76,66,57,55,52,47,81,62,41,30.19,30.03,4,1,10,0.00
2013-6-3,81,69,57,61,56,51,88,66,40,30.07,29.84,5,2,14,0.00
2013-6-4,84,74,64,70,65,60,91,73,59,30.01,29.77,9,2,25,0.37
2013-6-5,84,73,63,68,64,60,92,77,52,30.06,29.81,8,1,22,0.44
2013-6-6,77,69,62,65,59,53,86,71,47,30.04,29.94,4,0,8,0.00
2013-6-7,82,70,57,59,54,50,86,60,34,30.07,29.94,1,0,7,0.00
2013-6-8,81,72,62,62,57,54,80,61,47,29.97,29.79,7,2,19,0.00
2013-6-9,90,75,63,66,61,52,91,65,29,30.00,29.79,8,0,18,0.39
2013-6-10,92,80,69,69,65,59,81,61,33,29.96,29.87,5,1,14,0.00
2013-6-11,90,82,70,69,64,58,72,55,35,29.99,29.89,5,2,17,0.00
2013-6-12,91,80,73,69,66,63,78,63,44,30.00,29.88,6,3,17,0.00
2013-6-13,95,84,73,71,68,66,79,60,39,30.05,29.91,1,0,8,0.00
2013-6-14,92,83,73,72,68,63,83,62,39,30.01,29.92,3,0,12,0.00
2013-6-15,82,78,74,75,69,65,89,76,62,30.05,29.91,3,0,10,0.24
2013-6-16,92,80,71,73,69,67,88,72,46,30.04,29.86,4,0,13,0.00
2013-6-17,79,71,65,71,65,61,92,83,69,30.04,29.88,10,2,17,0.54
2013-6-18,86,75,67,67,64,62,90,71,45,30.07,29.96,2,0,8,0.00
2013-6-19,81,75,67,70,67,63,90,76,64,30.07,29.93,6,1,16,0.00
2013-6-20,90,81,72,72,69,65,89,67,49,30.01,29.90,7,3,18,0.00
2013-6-21,90,82,74,73,67,63,72,61,47,30.02,29.94,6,2,16,0.00
2013-6-22,90,82,74,70,65,58,72,58,36,30.00,29.86,7,3,19,0.00
2013-6-23,90,82,75,68,65,62,74,57,40,29.93,29.85,8,4,19,0.00
2013-6-24,88,81,74,70,66,64,73,60,47,29.99,29.85,6,3,19,0.00
2013-6-25,89,82,76,72,67,63,69,60,53,29.91,29.77,7,3,21,0.00
2013-6-26,92,84,76,73,68,60,71,58,50,29.92,29.79,5,2,17,0.00
2013-6-27,99,86,75,74,69,59,78,58,37,30.07,29.84,8,1,14,0.00
2013-6-28,97,84,74,72,63,57,67,51,27,30.00,29.88,4,0,10,0.00
2013-6-29,92,80,70,66,61,57,74,54,33,30.02,29.87,2,0,6,0.00
2013-6-30,86,75,63,59,54,-100,77,50,32,30.06,29.91,4,0,10,0.01
2013-7-1,83,71,60,59,52,45,80,54,27,30.16,30.05,3,0,10,0.00
2013-7-2,86,73,60,55,51,46,71,48,27,30.19,30.06,2,0,7,0.00
2013-7-3,87,74,62,58,53,48,73,50,27,30.13,29.98,2,0,7,0.00
2013-7-4,89,78,65,63,55,51,65,48,28,30.05,29.93,3,1,10,0.00
2013-7-5,90,79,67,66,60,52,81,55,28,30.03,29.87,6,2,17,0.17
2013-7-6,93,82,73,66,61,58,63,50,32,29.96,29.87,5,2,12,0.00
2013-7-7,93,83,72,68,62,59,70,52,35,30.02,29.95,4,1,13,0.00
2013-7-8,94,84,73,71,66,62,75,56,39,30.07,29.98,4,1,12,0.00
2013-7-9,98,86,75,68,65,62,72,51,32,30.07,29.94,4,1,12,0.00
2013-7-10,100,87,76,71,63,60,80,47,27,30.02,29.90,2,0,10,0.10
2013-7-11,99,85,72,71,67,62,88,57,30,29.99,29.87,6,0,17,0.00
2013-7-12,96,85,74,71,67,64,81,58,37,29.98,29.91,4,1,13,0.00
2013-7-13,97,85,75,69,66,64,76,55,36,30.02,29.89,5,1,12,0.00
2013-7-14,83,70,65,65,63,57,92,81,53,30.10,29.92,7,1,18,1.27
2013-7-15,74,67,62,67,63,59,92,87,71,30.19,30.07,3,0,12,0.37
2013-7-16,85,73,68,70,67,65,92,82,53,30.27,30.16,4,0,12,0.67
2013-7-17,88,76,69,72,69,67,92,81,52,30.32,30.22,3,0,13,0.02
2013-7-18,90,80,71,72,68,64,91,69,44,30.24,30.05,3,0,10,0.00
2013-7-19,92,82,70,70,66,61,88,62,38,30.08,29.92,2,0,10,0.00
2013-7-20,93,82,72,72,68,65,86,65,41,29.99,29.85,2,0,8,0.00
2013-7-21,93,83,74,73,68,65,81,62,40,29.91,29.81,2,0,10,0.00
2013-7-22,94,85,75,74,70,67,79,61,45,29.92,29.84,4,1,13,0.00
2013-7-23,95,86,77,74,70,68,75,60,45,29.94,29.79,4,1,12,0.00
2013-7-24,90,79,66,72,68,63,92,71,53,30.08,29.83,5,1,16,0.96
2013-7-25,85,78,71,72,69,68,90,76,58,30.11,30.00,4,0,12,0.06
2013-7-26,81,75,70,73,69,67,92,83,63,30.08,29.94,5,1,13,1.89
2013-7-27,86,76,68,70,66,64,92,74,50,30.10,29.97,1,0,6,0.00
2013-7-28,86,77,69,69,66,62,87,69,45,30.04,29.92,4,1,13,0.00
2013-7-29,89,80,72,74,70,65,82,71,58,29.99,29.88,6,2,17,0.01
2013-7-30,92,79,71,75,67,-100,91,72,52,30.07,29.92,6,1,13,0.20
2013-7-31,91,75,75,75,59,-100,90,71,52,30.11,30.02,5,0,6,0.00
2013-8-1,91,81,72,74,69,-100,89,70,51,30.11,29.95,2,0,11,0.00
2013-8-2,97,86,76,74,68,-100,82,60,36,29.96,29.82,3,1,17,0.00
2013-8-3,95,86,77,72,67,63,67,54,39,30.03,29.86,4,1,13,0.00
2013-8-4,94,85,76,74,69,66,80,61,41,30.07,29.93,3,1,13,0.00
2013-8-5,98,85,76,73,65,-100,71,55,36,29.96,29.81,4,1,13,0.00
2013-8-6,99,83,77,71,56,-100,63,47,30,29.86,29.76,5,1,12,0.00
2013-8-7,92,85,76,74,68,62,72,58,45,29.88,29.79,2,0,11,0.00
2013-8-8,89,77,70,75,67,-100,90,78,61,29.94,29.79,7,0,22,0.83
2013-8-9,86,75,70,74,66,-100,92,79,57,30.08,29.90,3,0,6,0.06
2013-8-10,84,70,68,69,56,-100,89,75,56,30.18,30.07,2,0,6,0.00
2013-8-11,93,76,68,74,59,-100,91,70,46,30.14,30.01,1,0,5,0.00
2013-8-12,94,83,74,75,70,67,83,68,48,30.06,29.93,1,0,6,0.00
2013-8-13,82,74,71,75,70,67,92,85,69,30.09,29.95,2,0,10,0.75
2013-8-14,85,75,67,69,66,64,91,74,52,30.15,30.04,1,0,6,0.00
2013-8-15,84,74,67,68,64,61,86,72,57,30.13,30.00,3,0,11,0.00
2013-8-16,82,72,63,67,63,60,92,77,55,30.14,30.01,4,0,12,0.20
2013-8-17,82,73,63,67,62,59,89,70,52,30.18,30.08,1,0,7,0.00
2013-8-18,84,73,63,65,62,59,86,69,48,30.17,30.06,2,0,8,0.00
2013-8-19,88,76,66,67,62,-100,81,64,40,30.12,29.99,4,1,13,0.00
2013-8-20,93,79,68,68,62,58,73,57,33,30.08,29.98,3,0,8,0.00
2013-8-21,93,80,69,68,62,56,74,56,30,30.11,30.02,2,0,8,0.00
2013-8-22,93,81,69,70,65,60,74,60,36,30.11,29.97,2,0,8,0.00
2013-8-23,96,82,74,72,67,63,76,62,34,30.06,29.97,2,0,10,0.00
2013-8-24,94,82,72,72,67,65,82,63,39,30.11,30.02,2,0,8,0.00
2013-8-25,93,82,74,70,66,-100,78,62,38,30.19,30.10,3,0,11,0.00
2013-8-26,92,82,72,69,65,62,75,58,38,30.21,30.08,3,0,11,0.00
2013-8-27,87,79,70,70,65,60,76,63,51,30.13,30.05,2,0,11,0.00
2013-8-28,92,81,70,70,66,64,83,63,40,30.10,30.00,3,0,13,0.00
2013-8-29,97,85,71,68,62,57,73,50,28,30.08,29.98,2,0,10,0.00
2013-8-30,93,78,72,66,64,62,73,63,40,30.02,29.97,1,0,7,0.00
2013-8-31,104,87,73,67,61,54,66,44,20,29.92,29.79,2,0,8,0.00
2013-9-1,96,83,74,70,63,-100,69,53,38,29.93,29.79,3,0,7,0.00
2013-9-2,91,79,70,70,63,55,89,60,34,30.06,29.93,2,0,7,0.00
2013-9-3,90,75,62,63,58,54,86,60,30,30.10,29.99,2,0,7,0.00
2013-9-4,95,79,65,67,61,57,77,58,31,30.14,30.04,2,0,12,0.00
2013-9-5,96,81,72,67,62,56,76,54,28,30.16,30.05,3,1,10,0.00
2013-9-6,97,83,72,67,61,57,65,49,27,30.13,29.99,4,0,8,0.00
2013-9-7,100,84,72,64,61,57,68,49,25,30.03,29.92,3,0,10,0.00
2013-9-8,97,83,71,68,60,53,74,49,26,30.00,29.89,4,1,11,0.00
2013-9-9,93,82,70,66,59,52,71,48,27,30.00,29.92,7,2,16,0.00
2013-9-10,91,81,71,66,60,54,74,50,31,30.11,29.96,5,1,14,0.00
2013-9-11,94,79,67,67,59,55,82,53,29,30.16,30.03,4,1,11,0.00
2013-9-12,94,79,70,69,64,58,89,63,31,30.13,30.00,4,0,11,0.18
2013-9-13,83,76,69,70,65,-100,87,72,57,30.08,29.96,4,0,8,0.00
2013-9-14,86,74,65,62,58,54,73,57,39,30.06,29.94,4,1,13,0.00
2013-9-15,95,80,68,66,60,54,64,51,30,30.05,29.96,4,1,12,0.00
2013-9-16,90,79,71,68,65,63,80,64,46,30.17,30.02,2,1,8,0.00
2013-9-17,92,76,70,68,65,61,91,72,37,30.12,29.97,4,0,13,0.08
2013-9-18,93,80,71,67,61,-100,80,57,28,30.01,29.88,6,2,17,0.00
2013-9-19,87,76,72,71,66,62,90,72,49,29.99,29.90,4,1,12,0.35
2013-9-20,72,67,58,66,60,52,89,80,60,30.08,29.95,3,0,6,0.02
2013-9-21,81,66,54,54,50,45,85,61,30,30.11,29.97,2,0,7,0.00
2013-9-22,84,68,56,50,47,41,79,50,24,30.01,29.85,3,0,11,0.00
2013-9-23,83,70,55,52,49,46,79,50,29,29.91,29.77,6,2,16,0.00
2013-9-24,87,73,60,51,45,36,70,41,17,30.02,29.90,4,1,11,0.00
2013-9-25,92,73,56,56,49,42,82,47,19,29.96,29.80,3,1,13,0.00
2013-9-26,93,80,68,57,52,47,50,39,27,29.88,29.77,7,2,17,0.00
2013-9-27,89,73,64,66,50,-100,76,55,40,29.93,29.82,13,3,19,0.00
2013-9-28,78,67,54,70,57,-100,91,73,53,30.19,29.82,7,2,16,1.12
2013-9-29,78,62,52,52,44,-100,82,58,28,30.18,29.99,1,0,6,0.00
2013-9-30,85,67,52,53,47,-100,81,53,27,30.00,29.84,6,1,10,0.00
2013-10-1,88,74,60,63,57,49,85,58,37,29.96,29.86,6,2,17,0.00
2013-10-2,85,75,69,68,64,-100,91,73,53,30.00,29.85,5,2,13,0.00
2013-10-3,90,78,70,70,63,-100,86,65,39,29.90,29.75,7,4,18,0.00
2013-10-4,84,77,69,67,64,-100,82,66,51,29.92,29.77,7,4,19,0.00
2013-10-5,70,56,49,62,41,35,89,60,36,30.18,29.92,6,2,12,0.79
2013-10-6,69,56,44,41,35,27,77,48,21,30.21,30.11,5,1,11,0.00
2013-10-7,79,62,50,43,38,31,64,43,19,30.26,30.14,1,0,5,0.00
2013-10-8,79,64,52,48,42,38,61,45,24,30.17,30.03,5,2,14,0.00
2013-10-9,81,64,54,52,44,-100,79,56,30,30.11,29.99,6,2,12,0.00
2013-10-10,82,68,57,60,54,50,82,61,41,30.07,29.86,7,3,19,0.00
2013-10-11,86,74,65,65,58,46,83,61,28,29.87,29.79,6,3,18,0.00
2013-10-12,77,67,56,65,52,46,89,61,41,30.19,29.87,2,1,7,0.00
2013-10-13,74,66,62,65,57,-100,89,75,61,30.29,30.17,2,0,8,0.00
2013-10-14,70,67,64,68,63,61,92,89,81,30.19,29.92,4,2,14,0.64
2013-10-15,70,56,51,68,48,41,92,75,57,30.20,29.93,6,2,16,0.96
2013-10-16,58,50,43,44,39,37,89,69,50,30.26,30.17,2,1,7,0.00
2013-10-17,72,53,39,46,40,34,91,66,28,30.20,30.04,2,0,11,0.01
2013-10-18,55,48,38,48,42,34,90,79,59,30.30,30.05,5,1,12,0.09
2013-10-19,66,48,34,43,35,30,91,67,27,30.31,30.12,2,0,10,0.00
2013-10-20,70,56,42,47,41,36,80,60,38,30.12,29.88,6,2,19,0.00
2013-10-21,64,54,43,48,41,34,85,62,35,30.22,29.95,4,1,14,0.00
2013-10-22,76,56,41,46,40,35,81,58,27,30.22,30.09,2,0,8,0.00
2013-10-23,77,60,46,48,44,40,80,56,29,30.22,30.03,4,1,11,0.00
2013-10-24,63,53,45,48,40,35,81,62,39,30.44,30.12,2,0,7,0.00
2013-10-25,64,50,40,42,36,31,73,60,41,30.53,30.30,5,1,12,0.00
2013-10-26,62,56,50,59,51,40,92,83,65,30.30,30.15,4,1,13,0.25
2013-10-27,71,57,43,54,44,34,92,67,26,30.21,30.04,2,0,8,0.00
2013-10-28,66,60,54,62,56,52,92,89,85,30.15,30.04,6,2,16,0.00
2013-10-29,75,70,66,66,64,61,88,81,73,30.06,29.95,6,3,17,0.00
2013-10-30,75,69,65,68,65,62,92,86,77,29.99,29.77,7,4,20,0.10
2013-10-31,66,60,49,62,49,38,92,68,37,29.92,29.65,5,2,13,0.32
2013-11-1,70,56,46,49,40,36,79,58,34,30.18,29.88,4,1,10,0.00
2013-11-2,63,52,42,37,32,27,70,49,27,30.41,30.18,3,1,8,0.00
2013-11-3,60,53,43,41,34,29,65,50,38,30.26,29.98,7,3,19,0.00
2013-11-4,63,57,51,54,50,41,85,77,58,30.11,29.99,6,3,17,0.09
2013-11-5,64,60,46,62,57,44,92,90,86,30.10,29.92,7,3,20,1.19
2013-11-6,53,44,37,44,36,32,91,73,47,30.49,30.10,5,2,12,0.10
2013-11-7,66,49,37,40,34,31,83,60,27,30.58,30.42,1,0,8,0.00
2013-11-8,66,53,41,38,33,28,75,49,25,30.42,30.12,8,3,20,0.00
2013-11-9,68,56,46,48,42,34,76,61,41,30.30,30.12,4,1,16,0.00
2013-11-10,65,56,52,51,47,45,82,74,56,30.44,30.29,3,0,10,0.00
2013-11-11,72,58,43,56,50,37,88,75,53,30.50,30.22,7,2,14,0.00
2013-11-12,43,35,26,37,17,8,81,50,26,30.88,30.50,7,2,13,0.00
2013-11-13,52,36,22,24,17,13,73,49,22,30.83,30.41,4,1,13,0.00
2013-11-14,55,43,34,37,27,22,72,54,30,30.41,30.05,7,3,17,0.03
2013-11-15,66,53,43,52,42,-100,84,67,44,30.05,29.82,5,2,20,0.00
2013-11-16,77,66,58,58,54,52,83,67,42,29.81,29.56,9,5,21,0.01
2013-11-17,74,64,53,58,41,19,83,47,20,30.14,29.59,7,2,19,0.00
2013-11-18,68,54,44,32,27,19,50,37,20,30.32,30.16,3,0,8,0.00
2013-11-19,62,55,51,35,29,23,54,38,26,30.24,30.02,8,4,18,0.00
2013-11-20,61,55,50,50,39,29,75,56,39,30.03,29.88,8,4,22,0.00
2013-11-21,69,50,30,60,44,24,87,81,67,30.47,29.95,8,4,16,0.00
2013-11-22,30,28,27,25,22,19,87,79,66,30.69,30.47,8,3,17,0.01
2013-11-23,36,32,28,26,24,19,84,72,59,30.78,30.66,2,1,10,0.01
2013-11-24,30,26,23,22,19,11,82,74,52,30.78,30.46,2,0,6,0.00
2013-11-25,33,30,26,29,26,22,86,84,80,30.46,30.32,2,0,5,0.00
2013-11-26,46,36,28,29,25,17,86,66,43,30.54,30.31,6,2,13,0.23
2013-11-27,42,30,19,17,13,-100,73,53,27,30.61,30.40,2,0,6,0.07
2013-11-28,57,41,30,29,22,17,62,48,30,30.51,30.38,4,1,13,0.01
2013-11-29,59,44,32,33,27,23,69,52,31,30.55,30.34,5,2,14,0.00
2013-11-30,62,49,41,45,39,-100,87,73,53,30.34,30.17,7,2,18,0.00
2013-12-1,58,47,40,50,42,-100,92,86,70,30.18,29.99,1,0,5,0.00
2013-12-2,59,46,37,48,41,-100,92,84,61,29.99,29.72,2,0,7,0.01
2013-12-3,66,51,42,47,42,36,92,72,39,29.72,29.55,3,1,10,0.01
2013-12-4,49,40,29,42,30,16,81,65,53,30.16,29.56,6,2,12,0.00
2013-12-5,29,22,19,16,7,-100,80,62,47,30.42,30.16,6,3,14,0.00
2013-12-6,24,17,13,13,3,-100,82,70,57,30.73,30.39,4,1,12,0.02
2013-12-7,20,15,8,10,4,-1,68,62,55,30.79,30.42,3,0,11,0.00
2013-12-8,28,22,18,20,17,9,86,79,65,30.42,30.12,4,1,12,0.00
2013-12-9,25,22,14,21,14,6,85,73,61,30.57,30.32,2,1,8,0.00
2013-12-10,39,23,8,22,11,-100,80,65,44,30.62,30.36,4,1,14,0.14
2013-12-11,40,29,20,24,16,-100,78,64,49,30.73,30.35,4,1,12,0.06
2013-12-12,39,30,19,29,21,13,79,67,53,30.73,30.32,5,1,12,0.03
2013-12-13,51,42,36,39,35,29,89,77,59,30.32,29.84,7,3,18,0.04
2013-12-14,41,34,29,38,26,20,91,73,53,30.42,29.91,7,2,16,0.00
2013-12-15,62,44,31,29,25,21,73,52,24,30.42,30.24,3,0,12,0.00
2013-12-16,70,49,33,31,28,22,74,49,17,30.27,30.17,3,0,10,0.00
2013-12-17,64,51,42,30,27,24,55,40,24,30.38,30.22,3,1,11,0.00
2013-12-18,68,53,38,45,33,25,67,47,27,30.34,29.92,8,3,24,0.00
2013-12-19,68,59,53,52,48,44,82,70,53,29.92,29.69,10,5,28,0.00
2013-12-20,58,34,28,51,27,17,89,76,60,30.08,29.72,6,2,14,0.42
2013-12-21,32,31,29,29,28,26,90,90,89,29.95,29.70,0,0,0,0.01
2013-12-22,30,26,19,26,22,15,90,85,81,30.53,29.95,0,0,0,0.08
2013-12-23,28,20,17,25,-1,-100,88,75,84,30.72,30.51,0,0,0,0.00
2013-12-24,43,29,24,35,16,-100,89,80,70,30.70,30.28,5,1,13,0.02
2013-12-25,41,33,28,34,28,25,91,85,68,30.55,30.35,3,1,7,0.00
2013-12-26,55,38,25,36,27,22,91,68,27,30.55,30.40,4,0,10,0.00
2013-12-27,61,42,30,31,26,23,77,56,28,30.51,30.38,4,0,11,0.00
2013-12-28,60,46,36,41,33,25,85,63,34,30.38,29.99,6,2,14,0.00
2013-12-29,44,29,20,39,20,7,87,69,56,30.46,30.00,8,3,16,0.00
2013-12-30,41,27,13,18,11,5,75,53,28,30.52,30.38,2,0,7,0.00
2013-12-31,54,40,25,26,22,18,74,51,28,30.50,30.20,7,2,18,0.00
2014-1-1,58,37,21,33,25,13,74,61,37,30.40,29.95,8,4,16,0.00
2014-1-2,40,26,15,19,14,8,73,61,41,30.65,30.40,5,1,11,0.00